Regional Weather Roundup
Issued by NWS

Home | Current Version | Previous Version | Graphics & Text | Print | Product List | Glossary On
Versions: 1 2 3 4 5 6 7 8 9 10 11 12 13 14 15 16 17 18 19 20 21 22 23 24 25 26 27 28 29 30 31 32 33 34 35 36 37 38 39 40 41 42 43 44 45 46 47 48 49 50
357
ASUS43 KTOP 031259
RWRKS

WEATHER ROUNDUP FOR KANSAS
NATIONAL WEATHER SERVICE GOODLAND KS
800 AM CDT TUE MAY 03 2016

NOTE:  "FAIR" INDICATES FEW OR NO CLOUDS BELOW 12,000 FEET WITH NO
SIGNIFICANT WEATHER AND/OR OBSTRUCTIONS TO VISIBILITY.

KSZ001>006-013>018-027>032-041>047-031400-
NORTHWEST KANSAS

CITY           SKY/WX    TMP DP  RH WIND       PRES   REMARKS
GOODLAND       PTSUNNY   44  40  85 W6        30.08R
HAYS           FAIR      48  36  61 CALM      30.03S
HILL CITY      FAIR      50  43  77 E5        30.06R
RUSSELL        FAIR      47  41  80 NW5       30.03R
$$

KSZ061>065-074>080-084>089-031400-
SOUTHWEST KANSAS

CITY           SKY/WX    TMP DP  RH WIND       PRES   REMARKS
DODGE CITY     CLOUDY    46  39  76 NW6       30.06R
ELKHART          N/A     51  37  58 NW10        N/A
GARDEN CITY    PTSUNNY   45  39  79 CALM      30.04R
GREAT BEND     FAIR      48  39  71 W3        30.05S
LIBERAL        FAIR      46  39  76 SW3       30.07R
$$

KSZ066>073-081>083-090>101-031400-
SOUTHEAST KANSAS

CITY           SKY/WX    TMP DP  RH WIND       PRES   REMARKS
CHANUTE        FAIR      48  46  93 CALM      30.10S
COFFEYVILLE    FAIR      46  45  96 CALM      30.10S
HUTCHINSON     FAIR      48  43  82 SE5       30.06S
MEDICINE LODGE   N/A     45  41  86 CALM      30.07R
NEWTON         FAIR      45  39  81 SE7       30.09S
PARSONS        FAIR      47  46  97 CALM      30.11S
WICHITA INTL   FAIR      48  43  82 S6        30.07S
WICHITA JABRA  FAIR      48  44  86 S5        30.08R
WINFIELD       FAIR      48  44  86 CALM      30.13S
$$

KSZ007>012-019>026-033>040-048>060-102>105-031400-
NORTHEAST KANSAS

CITY           SKY/WX    TMP DP  RH WIND       PRES   REMARKS
CONCORDIA      FAIR      45  41  86 CALM      30.05S
EMPORIA        FAIR      48  45  89 CALM      30.09R
LAWRENCE       FAIR      44  43  96 NW3       30.09R
MANHATTAN      FAIR      48  44  86 CALM      30.08S
OLATHE IND     FAIR      49  45  86 W6        30.09R
OLATHE EXE       N/A     49  45  86 NW5       30.08R
SALINA         CLOUDY    46  42  86 S5        30.06S
TOPEKA BILLARD FAIR      44  43  96 CALM      30.09R
TOPEKA FORBES  FAIR      49  45  86 CALM      30.09R
$$




USA.gov is the U.S. government's official web portal to all federal, state and local government web resources and services.